{"data":{"norad_id":67130,"intl_designator":"2025-299AE","name":"STARLINK-36194","alt_names":[],"object_type":"PAYLOAD","status":"ACTIVE","operator":null,"country":"US","launch_date":"2025-12-15","launch_site_code":"AFETR","launch_vehicle":null,"mission":null,"orbit_class":"UNKNOWN","rcs_meters":null,"size_class":null,"mass_kg":null,"dimensions":null,"purposes":["comms"],"wikipedia_slug":null,"has_3d_model":false,"image_url":null,"decayed_at":null,"tle_current":{"epoch":"2026-09-20T09:19:57.405504Z","epoch_age_seconds":88132,"freshness":"FRESH","line1":"1 67130U 25299AE  26263.38885886  .00010025  00000+0  37322-3 0  9994","line2":"2 67130  43.0044 149.3716 0000757 267.9209  92.1555 15.27590261 42897","mean_motion":15.27590261,"eccentricity":7.57e-5,"inclination_deg":43.0044,"raan_deg":149.3716,"arg_perigee_deg":267.9209,"mean_anomaly_deg":92.1555,"bstar":0.00037322,"rev_number":4289,"period_min":94.266115513026,"perigee_km":482.49898162467,"apogee_km":483.53776054786,"semimajor_km":6861.1553710863,"source":"CELESTRAK","updated_at":"2026-09-21T09:00:36.109629Z"}}}